Location: Im Fang
(46.6019°N, 7.2397°E)
Time: 18:32:20
(UTC+00:00)

Cosmos 2279 Rocket - Pass Details

Date: 08 December 2019
Orbit: 964 x 979 km, 82.9° (Epoch: 26 January)

Event Time Altitude Azimuth Distance (km) Brightness Sun altitude
Rises 05:29:47 0° 184° (S) 3,640 7.2 -15.1°
Reaches altitude 10° 05:32:16 10° 184° (S) 2,699 6.5 -14.7°
Maximum altitude 05:38:27 85° 97° (E) 979 4.1 -13.7°
Drops below altitude 10° 05:44:43 10° 10° (N) 2,726 6.2 -12.7°
Sets 05:47:14 0° 10° (N) 3,680 6.9 -12.3°
